DW0542 Weather Reports


time (UTC)temp
F
wind
direction
speed
knots
gust
knots
rain 1hr
in
rain 24hr
in
rain mn
in
humidity
%
barometer
mb
20260831014558 71 189 0.0 0.0 0.00 0.00 0.00 83 1017.2
20260831011557 71 189 0.0 4.3 0.00 0.00 0.00 82 1017.0
20260831010117 71 143 0.0 0.0 0.00 0.00 0.00 80 1017.0
20260831004555 71 143 0.0 0.0 0.00 0.00 0.00 78 1016.9
20260831003050 71 143 0.0 0.0 0.00 0.00 0.00 78 1016.9
20260831001547 71 143 0.0 0.0 0.00 0.00 0.00 77 1016.9
20260831000104 71 139 0.0 0.9 0.00 0.00 0.00 77 1016.7
20260830234543 72 137 0.0 0.0 0.00 0.00 0.00 76 1016.6
20260830233042 72 140 0.0 0.0 0.00 0.00 0.00 75 1016.6
20260830231532 72 139 0.0 0.0 0.00 0.00 0.00 73 1016.5
20260830230007 73 221 0.0 0.0 0.00 0.00 0.00 72 1016.7
20260830224503 73 220 0.0 3.5 0.00 0.00 0.00 72 1016.8
20260830223002 73 220 0.0 0.0 0.00 0.00 0.00 71 1016.8
20260830221605 73 221 0.0 6.1 0.00 0.00 0.00 70 1016.8
20260830220105 74 177 0.0 2.6 0.00 0.00 0.00 69 1016.9
20260830214556 74 174 0.0 0.0 0.00 0.00 0.00 68 1016.9
20260830213055 74 174 0.0 0.0 0.00 0.00 0.00 67 1016.9
20260830211555 75 180 0.0 4.3 0.00 0.00 0.00 67 1017.0
20260830210054 75 204 0.0 5.2 0.00 0.00 0.00 66 1016.9
20260830204551 76 186 0.0 6.1 0.00 0.00 0.00 64 1017.0
20260830203051 76 184 0.0 0.9 0.00 0.00 0.00 65 1017.0
20260830201550 76 184 0.0 0.9 0.00 0.00 0.00 62 1017.2
20260830200047 77 184 0.0 0.0 0.00 0.00 0.00 61 1017.3
20260830194557 76 184 0.0 0.9 0.00 0.00 0.00 59 1017.4
20260830193058 77 184 0.0 2.6 0.00 0.00 0.00 58 1017.5
20260830191541 77 170 0.0 0.9 0.00 0.00 0.00 57 1017.8
20260830190038 77 195 0.9 7.0 0.00 0.00 0.00 55 1018.2
20260830184536 78 196 0.9 7.0 0.00 0.00 0.00 52 1018.5
20260830183035 77 205 0.0 3.5 0.00 0.00 0.00 54 1018.5
20260830181632 77 195 0.9 7.0 0.00 0.00 0.00 53 1018.5
20260830180032 77 213 0.9 7.8 0.00 0.00 0.00 53 1018.6
20260830174536 78 197 0.0 12.2 0.00 0.00 0.00 54 1018.7
20260830173031 77 201 0.0 7.0 0.00 0.00 0.00 56 1018.9
20260830171525 77 203 2.6 9.6 0.00 0.00 0.00 57 1018.9
20260830170024 78 252 0.9 8.7 0.00 0.00 0.00 53 1019.0
20260830164523 78 238 0.0 7.0 0.00 0.00 0.00 57 1019.1
20260830163021 78 241 2.6 10.4 0.00 0.00 0.00 52 1019.3
20260830161520 78 208 3.5 11.3 0.00 0.00 0.00 52 1019.4
20260830160015 77 246 0.0 10.4 0.00 0.00 0.00 54 1019.6
20260830154513 76 236 0.9 8.7 0.00 0.00 0.00 57 1019.6
20260830153008 76 270 2.6 9.6 0.00 0.00 0.00 58 1019.8
20260830151505 74 280 0.0 0.9 0.00 0.00 0.00 66 1020.0
20260830150033 73 174 0.0 0.9 0.00 0.00 0.00 68 1020.1
20260830144542 71 162 0.0 0.0 0.00 0.00 0.00 71 1020.6
20260830143028 70 162 0.0 0.9 0.00 0.00 0.00 72 1020.7
20260830141529 70 162 0.0 0.9 0.00 0.00 0.00 72 1020.7
20260830140026 69 162 0.0 0.0 0.00 0.00 0.00 71 1020.7
20260830134535 69 160 0.0 2.6 0.00 0.00 0.00 72 1020.9
20260830133023 69 160 0.0 2.6 0.00 0.00 0.00 73 1021.1
20260830131523 68 160 0.0 0.9 0.00 0.00 0.00 75 1021.2
20260830130022 66 160 0.0 0.0 0.00 0.00 0.00 79 1021.2
20260830124522 65 199 0.0 0.0 0.00 0.00 0.00 83 1021.2
20260830123056 63 199 0.0 0.0 0.00 0.00 0.00 86 1021.4
20260830121555 61 199 0.0 0.0 0.00 0.00 0.00 89 1021.7
20260830114519 59 199 0.0 0.0 0.00 0.00 0.00 90 1021.7
20260830113019 57 201 0.0 0.0 0.00 0.00 0.00 90 1021.6
20260830111517 57 201 0.0 0.0 0.00 0.00 0.00 90 1021.6
20260830110013 56 201 0.0 0.0 0.00 0.00 0.00 90 1021.4
20260830104512 56 201 0.0 0.0 0.00 0.00 0.00 90 1021.4
20260830103010 56 201 0.0 0.0 0.00 0.00 0.00 90 1021.4
20260830101509 56 201 0.0 0.0 0.00 0.00 0.00 89 1021.7
20260830100008 56 201 0.0 0.0 0.00 0.00 0.00 89 1021.7
20260830094509 56 201 0.0 0.0 0.00 0.00 0.00 89 1021.7
20260830093030 56 201 0.0 0.0 0.00 0.00 0.00 90 1021.8
20260830091536 56 201 0.0 0.0 0.00 0.00 0.00 90 1021.6
20260830090058 56 201 0.0 0.0 0.00 0.00 0.00 90 1021.6
20260830084620 56 201 0.0 0.0 0.00 0.00 0.00 90 1021.5
20260830083055 56 201 0.0 0.0 0.00 0.00 0.00 90 1021.8
20260830081607 56 201 0.0 0.0 0.00 0.00 0.00 90 1021.7
20260830080059 56 201 0.0 0.0 0.00 0.00 0.00 90 1022.0
20260830074554 56 201 0.0 0.0 0.00 0.00 0.00 90 1022.1
20260830073048 55 201 0.0 0.0 0.00 0.00 0.00 90 1022.0
20260830071555 55 201 0.0 0.0 0.00 0.00 0.00 90 1021.9
20260830070045 55 201 0.0 0.0 0.00 0.00 0.00 89 1021.8
20260830064544 55 201 0.0 0.0 0.00 0.00 0.00 89 1021.7
20260830063046 56 201 0.0 0.0 0.00 0.00 0.00 89 1021.6
20260830061539 56 201 0.0 0.0 0.00 0.00 0.00 89 1021.5
20260830060039 56 201 0.0 0.0 0.00 0.00 0.00 89 1021.5
20260830054538 56 201 0.0 0.0 0.00 0.00 0.00 88 1021.8
20260830053008 56 201 0.0 0.0 0.00 0.00 0.00 88 1021.9
20260830051540 56 201 0.0 0.0 0.00 0.00 0.00 88 1021.8
20260830050040 56 201 0.0 0.0 0.00 0.00 0.00 88 1021.8
20260830044634 56 201 0.0 0.0 0.00 0.00 0.00 87 1021.9
20260830043040 56 201 0.0 0.0 0.00 0.00 0.00 87 1021.9
20260830041537 57 201 0.0 0.0 0.00 0.00 0.00 87 1021.7
20260830040029 57 201 0.0 0.0 0.00 0.00 0.00 87 1021.7
20260830034528 57 201 0.0 0.0 0.00 0.00 0.00 87 1021.9
20260830033025 57 201 0.0 0.0 0.00 0.00 0.00 86 1021.8
20260830031524 57 201 0.0 0.0 0.00 0.00 0.00 86 1021.8
20260830030022 57 201 0.0 0.0 0.00 0.00 0.00 86 1021.7
20260830024532 58 201 0.0 0.0 0.00 0.00 0.00 86 1021.7
20260830023020 58 201 0.0 0.0 0.00 0.00 0.00 85 1021.8
20260830021549 58 201 0.0 0.0 0.00 0.00 0.00 84 1021.7
20260830020046 59 201 0.0 0.0 0.00 0.00 0.00 83 1021.8